Weather in Leninskoe

Russia / Saint-Petersburg and Leningrad Oblast     60°13′10″N   29°51′13″E
temp.,
°C
wind,
m/s
gust,
m/s
humid.,
%
clouds,
%
prec.,
mm/h
press.,
hPa
HPBL,
m
8 march, mon
mon800:00−8n51090100 0.3 999785
03:00−9n51288100 0.4 1003656
06:00−10n51189100 0.1 1005602
09:00−11n598998 0.1 1009437
12:00−10n478295 0.0 1012475
15:00−8n467355 0.0 1013670
18:00−9n368136 0.0 1015408
21:00−13nne269466 0.0 1016167
9 march, tue
tue900:00−15n249647 0.0 1018107
03:00−16nne239646 0.0 101962
06:00−17ne24953 0.0 102086
09:00−16ene35913 0.0 1022213
12:00−13e237785 0.0 1023529
15:00−12e357879 0.0 1024547
18:00−15e368432 0.0 1025319
21:00−19e379216 0.0 1027204
10 march, wed
wed1000:00−19e26940 0.0 1028155
03:00−20e25910 0.0 1029116
06:00−20ese23860 0.0 103053
09:00−18ese237718 0.0 103185
12:00−12se126189 0.0 1031259
15:00−9sse125768 0.0 1031401
18:00−11sse22690 0.0 103025
21:00−14se23770 0.0 103022
11 march, thu
thu1100:00−15se23840 0.0 103059
03:00−15se36840 0.0 1028123
06:00−15se48830 0.0 1026212
09:00−13se512750 0.0 1025384
12:00−9sse611693 0.0 1023580
15:00−7sse5108231 0.0 1020565
18:00−8sse51089100 0.0 1017434
21:00−9sse51292100 0.1 1015475
12 march, fri
fri1200:00−8sse61391100 0.0 1012527
03:00−9sse61389100 0.1 1009626
06:00−9sse71587100 0.1 1005681
09:00−8sse81590100 0.4 1003762
12:00−6sse81492100 1.4 1001851
15:00−5sse81392100 2.9 999841
18:00−5sse71395100 1.9 997664
21:00−4sse51096100 4.3 997501